GW3175 Weather Reports


time (UTC)temp
F
wind
direction
speed
knots
gust
knots
rain 1hr
in
rain 24hr
in
rain mn
in
humidity
%
barometer
mb
20260507134426 55 176 3.5 5.2 0.00 0.16 0.16 73 1003.3
20260507133922 55 146 1.7 5.2 0.00 0.16 0.16 73 1003.3
20260507133418 54 147 0.0 6.1 0.00 0.16 0.16 72 1003.3
20260507132911 54 17 2.6 5.2 0.00 0.16 0.16 74 1003.5
20260507132407 54 200 6.1 7.8 0.00 0.16 0.16 76 1003.4
20260507131906 53 8 1.7 6.1 0.00 0.16 0.16 75 1003.8
20260507131401 54 297 1.7 2.6 0.00 0.16 0.16 76 1003.8
20260507130858 54 329 0.9 3.5 0.00 0.16 0.16 77 1003.8
20260507130355 53 347 1.7 6.1 0.00 0.16 0.16 80 1003.5
20260507125854 53 4 0.9 6.1 0.00 0.16 0.16 78 1003.6
20260507125351 53 38 7.8 7.8 0.00 0.16 0.16 80 1003.6
20260507124848 53 336 6.1 9.6 0.00 0.16 0.16 81 1003.7
20260507124344 52 18 3.5 5.2 0.00 0.16 0.16 82 1003.5
20260507123843 51 355 4.3 7.8 0.00 0.16 0.16 81 1003.9
20260507123340 51 14 1.7 5.2 0.00 0.16 0.16 85 1003.6
20260507122836 51 6 1.7 3.5 0.00 0.16 0.16 86 1003.5
20260507122331 51 359 1.7 2.6 0.00 0.16 0.16 86 1003.5
20260507121828 50 358 0.0 4.3 0.00 0.16 0.16 87 1002.9
20260507121324 51 353 0.0 4.3 0.00 0.16 0.16 88 1003.2
20260507120820 50 293 0.9 5.2 0.00 0.16 0.16 86 1003.6
20260507120317 49 200 0.9 2.6 0.00 0.16 0.16 94 1003.5
20260507115813 48 6 2.6 2.6 0.00 0.16 0.16 92 1003.3
20260507115309 48 186 1.7 3.5 0.00 0.16 0.16 92 1003.7
20260507114805 48 55 0.0 3.5 0.00 0.16 0.16 94 1003.4
20260507114302 49 12 2.6 5.2 0.00 0.16 0.16 92 1003.6
20260507113759 50 87 1.7 5.2 0.00 0.16 0.16 91 1004.0
20260507113256 47 235 0.0 1.7 0.00 0.16 0.16 95 1004.0
20260507112754 46 25 0.9 2.6 0.00 0.16 0.16 95 1003.5
20260507112251 46 26 1.7 2.6 0.00 0.16 0.16 95 1003.7
20260507111749 46 107 1.7 2.6 0.00 0.16 0.16 95 1004.7
20260507111245 46 127 1.7 2.6 0.00 0.16 0.16 95 1004.5
20260507110741 46 163 1.7 3.5 0.00 0.16 0.16 93 1003.9
20260507110237 46 132 1.7 2.6 0.00 0.16 0.16 94 1004.4
20260507105734 46 31 0.9 2.6 0.00 0.16 0.16 95 1004.3
20260507105230 46 138 1.7 2.6 0.00 0.16 0.16 95 1004.2
20260507104728 46 213 0.0 2.6 0.00 0.16 0.16 95 1004.1
20260507104224 46 181 0.0 2.6 0.00 0.16 0.16 95 1003.9
20260507103720 46 295 0.9 5.2 0.00 0.16 0.16 95 1003.9
20260507103217 46 238 0.9 4.3 0.00 0.16 0.16 95 1004.2
20260507102713 46 325 0.0 2.6 0.00 0.16 0.16 96 1003.8
20260507102210 46 49 0.0 2.6 0.00 0.16 0.16 95 1003.4
20260507101706 46 52 2.6 3.5 0.00 0.16 0.16 94 1003.1
20260507101201 46 89 1.7 2.6 0.00 0.16 0.16 95 1003.6
20260507100659 45 203 7.0 8.7 0.00 0.16 0.16 96 1003.6
20260507100157 45 205 3.5 5.2 0.00 0.16 0.16 98 1003.3
20260507095655 45 214 0.9 3.5 0.00 0.16 0.16 97 1002.9
20260507095151 45 343 0.9 2.6 0.00 0.16 0.16 98 1002.9
20260507094648 45 18 2.6 2.6 0.00 0.16 0.16 99 1003.5
20260507094144 45 326 0.0 3.5 0.00 0.16 0.16 99 1003.4
20260507093642 45 347 1.7 2.6 0.00 0.16 0.16 99 1003.3
20260507093141 45 0 0.9 1.7 0.00 0.16 0.16 99 1003.4
20260507092637 45 346 0.0 3.5 0.00 0.16 0.16 98 1003.3
20260507092133 45 32 2.6 4.3 0.00 0.16 0.16 99 1003.1
20260507091630 45 47 1.7 3.5 0.00 0.16 0.16 99 1003.5
20260507091126 45 337 2.6 4.3 0.00 0.16 0.16 98 1003.5
20260507090622 46 42 0.9 2.6 0.00 0.16 0.16 98 1003.5
20260507090119 46 354 0.0 3.5 0.00 0.16 0.16 97 1003.5
20260507085616 46 26 1.7 2.6 0.00 0.16 0.16 98 1003.5
20260507085113 46 16 1.7 5.2 0.00 0.16 0.16 98 1003.8
20260507084610 46 4 2.6 2.6 0.00 0.16 0.16 99 1003.5
20260507084107 46 53 1.7 2.6 0.00 0.16 0.16 99 1003.4
20260507083603 46 124 2.6 4.3 0.00 0.16 0.16 99 1003.2
20260507083100 46 102 0.0 3.5 0.00 0.16 0.16 99 1003.2
20260507082556 46 359 2.6 3.5 0.00 0.16 0.16 99 1003.3
20260507082053 46 352 2.6 5.2 0.00 0.16 0.16 99 1003.0
20260507081548 46 285 1.7 3.5 0.00 0.16 0.16 99 1002.9
20260507081046 47 187 0.9 2.6 0.00 0.16 0.16 99 1002.9
20260507080541 47 259 0.0 2.6 0.00 0.16 0.16 99 1002.9
20260507080033 47 334 2.6 2.6 0.00 0.16 0.16 99 1002.7
20260507075528 47 358 1.7 5.2 0.00 0.16 0.16 99 1002.9
20260507075025 47 347 1.7 4.3 0.00 0.16 0.16 99 1003.0
20260507074521 47 222 0.0 1.7 0.00 0.16 0.16 99 1002.9
20260507074020 47 13 0.9 2.6 0.00 0.16 0.16 99 1002.6
20260507073516 47 13 2.6 5.2 0.00 0.16 0.16 99 1002.7
20260507073012 47 32 1.7 4.3 0.00 0.16 0.16 99 1002.7
20260507072510 47 351 1.7 5.2 0.00 0.16 0.16 99 1002.5
20260507072007 47 359 2.6 3.5 0.00 0.16 0.16 99 1002.5
20260507071504 48 25 0.9 1.7 0.00 0.16 0.16 99 1002.3
20260507071000 48 352 0.9 2.6 0.00 0.16 0.16 99 1002.4
20260507070458 48 19 1.7 2.6 0.00 0.16 0.16 99 1002.4
20260507065955 48 325 0.0 1.7 0.00 0.16 0.16 99 1002.5
20260507065451 48 268 0.0 4.3 0.02 0.16 0.16 99 1002.6
20260507064948 48 350 0.0 3.5 0.02 0.16 0.16 99 1002.6
20260507064447 48 359 0.0 2.6 0.02 0.16 0.16 99 1002.7
20260507063944 48 33 1.7 4.3 0.02 0.16 0.16 99 1002.3
20260507063441 48 327 0.0 0.9 0.02 0.15 0.15 99 1002.3
20260507062938 48 11 0.0 2.6 0.02 0.15 0.15 99 1002.2
20260507062435 48 5 0.9 1.7 0.00 0.15 0.15 99 1002.4
20260507061932 48 19 2.6 6.1 0.02 0.15 0.15 99 1002.4
20260507061430 48 73 2.6 3.5 0.05 0.15 0.15 99 1002.3
20260507060928 48 34 0.0 2.6 0.07 0.15 0.15 99 1002.2
20260507060425 48 339 2.6 4.3 0.09 0.14 0.14 99 1002.1
20260507055921 48 342 0.0 4.3 0.09 0.13 0.13 99 1002.0
20260507055416 49 315 0.0 2.6 0.12 0.12 0.12 99 1002.1
20260507054908 49 269 0.0 2.6 0.14 0.11 0.11 99 1002.3
20260507054404 49 12 0.9 6.1 0.14 0.10 0.10 99 1002.1
20260507053901 49 4 2.6 8.7 0.14 0.09 0.09 99 1001.8
20260507053359 49 336 3.5 9.6 0.14 0.07 0.07 99 1002.0
20260507052858 50 348 4.3 6.1 0.14 0.06 0.06 99 1002.3
20260507052354 50 358 7.8 12.2 0.12 0.05 0.05 99 1002.6
20260507051852 51 127 0.9 6.1 0.09 0.04 0.04 99 1003.1
20260507051349 51 36 1.7 5.2 0.07 0.02 0.02 99 1002.3
20260507050846 51 1 0.0 2.6 0.05 0.02 0.02 99 1002.1
20260507050342 51 204 0.0 2.6 0.02 0.01 0.01 99 1001.6
20260507045839 51 140 1.7 2.6 0.02 0.01 0.01 99 1001.5
20260507045335 51 206 0.9 2.6 0.02 0.01 0.01 99 1001.4
20260507044833 51 210 1.7 1.7 0.00 0.00 0.00 99 1001.6
20260507044329 51 180 0.9 4.3 0.02 0.00 0.00 99 1001.6
20260507043825 51 134 3.5 5.2 0.02 0.00 0.00 99 1001.5
20260507043322 51 115 3.5 4.3 0.00 0.00 0.00 99 1001.7
20260507042818 51 154 2.6 4.3 0.00 0.00 0.00 99 1002.0
20260507042314 52 11 0.9 3.5 0.00 0.00 0.00 99 1001.8
20260507041811 52 241 0.9 2.6 0.00 0.00 0.00 99 1001.5
20260507041308 51 244 0.9 3.5 0.00 0.00 0.00 99 1001.3
20260507040805 51 196 2.6 4.3 0.00 0.00 0.00 99 1001.2
20260507040301 51 48 2.6 7.0 0.00 0.00 0.00 99 1001.2
20260507035757 51 248 3.5 3.5 0.00 0.68 0.68 99 1001.2
20260507035252 51 212 1.7 5.2 0.00 0.68 0.68 99 1001.5
20260507034750 51 277 0.9 4.3 0.00 0.68 0.68 99 1001.5
20260507034247 51 322 2.6 6.1 0.00 0.68 0.68 99 1001.6
20260507033746 51 260 2.6 6.1 0.00 0.68 0.68 99 1001.7
20260507033242 51 219 4.3 9.6 0.00 0.68 0.68 99 1001.4
20260507032740 51 251 2.6 3.5 0.00 0.68 0.68 99 1001.5
20260507032236 51 290 2.6 6.1 0.00 0.68 0.68 99 1001.6
20260507031732 52 296 2.6 8.7 0.00 0.68 0.68 99 1001.6
20260507031229 52 247 2.6 5.2 0.00 0.68 0.68 99 1001.8
20260507030726 52 283 8.7 9.6 0.00 0.68 0.68 99 1001.6
20260507030223 52 277 2.6 7.8 0.00 0.68 0.68 99 1001.8
20260507025720 52 195 0.0 7.0 0.00 0.68 0.68 99 1001.8
20260507025217 52 28 0.0 7.0 0.00 0.68 0.68 99 1001.8
20260507024716 52 277 6.1 7.8 0.00 0.68 0.68 99 1002.1
20260507024213 52 278 0.9 6.1 0.00 0.68 0.68 99 1002.2
20260507023708 52 268 1.7 8.7 0.02 0.68 0.68 99 1002.1
20260507023205 52 206 5.2 7.8 0.00 0.67 0.67 99 1002.2
20260507022702 52 215 0.9 13.9 0.00 0.67 0.67 99 1002.4
20260507022158 52 213 5.2 7.0 0.00 0.67 0.67 99 1002.4
20260507021655 52 245 1.7 5.2 0.00 0.67 0.67 99 1002.7
20260507021150 52 216 2.6 12.2 0.00 0.67 0.67 99 1002.7
20260507020649 52 232 2.6 6.1 0.02 0.67 0.67 99 1002.9
20260507020144 52 245 2.6 9.6 0.05 0.67 0.67 99 1002.5
20260507015643 52 296 1.7 5.2 0.05 0.67 0.67 99 1002.8
20260507015140 52 181 1.7 4.3 0.05 0.67 0.67 99 1002.9
20260507014636 52 150 0.0 5.2 0.05 0.66 0.66 99 1002.9
20260507014132 52 275 2.6 3.5 0.05 0.66 0.66 99 1002.7
20260507013629 52 165 1.7 3.5 0.07 0.65 0.65 99 1003.1
20260507013126 52 175 2.6 10.4 0.09 0.65 0.65 99 1003.2
20260507012624 52 294 2.6 8.7 0.12 0.64 0.64 99 1003.2
20260507012119 52 220 3.5 7.0 0.14 0.63 0.63 99 1003.3
20260507011618 52 201 3.5 6.1 0.14 0.62 0.62 99 1003.3
20260507011113 53 228 9.6 9.6 0.12 0.61 0.61 99 1003.3
20260507010608 53 157 4.3 11.3 0.12 0.59 0.59 99 1003.5
20260507010104 53 185 1.7 7.0 0.14 0.58 0.58 99 1003.6
20260507005602 53 210 2.6 6.1 0.14 0.57 0.57 99 1003.5
20260507005058 53 103 0.9 20.9 0.12 0.56 0.56 99 1003.6
20260507004555 53 199 3.5 8.7 0.12 0.54 0.54 99 1003.4
20260507004052 53 207 2.6 12.2 0.09 0.53 0.53 99 1003.7
20260507003548 53 151 5.2 9.6 0.07 0.52 0.52 99 1003.5
20260507003043 53 75 2.6 7.0 0.02 0.52 0.52 99 1003.6
20260507002540 53 145 4.3 11.3 0.00 0.51 0.51 99 1003.5
20260507002036 53 43 3.5 7.0 0.00 0.51 0.51 99 1003.8
20260507001533 53 238 0.9 8.7 0.02 0.51 0.51 99 1004.0
20260507001031 53 148 5.2 7.8 0.00 0.51 0.51 99 1003.8
20260507000527 53 108 2.6 8.7 0.00 0.51 0.51 99 1003.9
20260507000023 53 255 0.9 9.6 0.02 0.51 0.51 99 1004.0
20260506235520 53 245 3.5 7.8 0.05 0.50 0.50 99 1004.1
20260506235015 53 259 0.9 9.6 0.14 0.50 0.50 99 1004.0
20260506234513 54 268 2.6 4.3 0.17 0.49 0.49 99 1004.0
20260506234010 54 143 4.3 13.9 0.17 0.48 0.48 99 1003.9
20260506233506 54 144 6.1 9.6 0.12 0.46 0.46 99 1003.9
20260506233004 54 162 3.5 7.8 0.12 0.45 0.45 99 1004.1
20260506232459 54 136 2.6 6.1 0.14 0.44 0.44 99 1004.2
20260506231955 54 324 5.2 7.8 0.19 0.42 0.42 99 1004.1
20260506231453 54 243 2.6 7.0 0.19 0.41 0.41 99 1003.8
20260506230950 54 226 3.5 11.3 0.21 0.39 0.39 99 1004.0
20260506230446 54 238 1.7 7.8 0.24 0.37 0.37 99 1004.0
20260506225943 55 268 3.5 7.0 0.24 0.35 0.35 99 1004.2
20260506225441 55 286 1.7 4.3 0.24 0.33 0.33 99 1003.9
20260506224937 54 257 1.7 7.8 0.26 0.31 0.31 99 1004.1
20260506224434 54 241 3.5 11.3 0.24 0.28 0.28 99 1004.2
20260506223931 54 272 5.2 5.2 0.19 0.26 0.26 99 1004.6
20260506223426 54 323 1.7 5.2 0.14 0.24 0.24 99 1004.5
20260506222924 54 58 1.7 8.7 0.09 0.22 0.22 99 1004.7
20260506222420 54 174 1.7 7.0 0.12 0.22 0.22 99 1004.7
20260506221917 54 247 3.5 11.3 0.12 0.20 0.20 99 1005.0
20260506221414 55 288 4.3 11.3 0.09 0.19 0.19 99 1004.8
20260506220912 55 132 6.1 10.4 0.14 0.18 0.18 99 1004.8
20260506220407 55 170 2.6 8.7 0.19 0.18 0.18 99 1004.8
20260506215904 55 94 3.5 6.1 0.14 0.16 0.16 99 1004.9
20260506215400 55 93 4.3 6.1 0.05 0.14 0.14 99 1004.7
20260506214856 55 266 2.6 8.7 0.05 0.14 0.14 99 1005.0
20260506214353 55 347 1.7 7.8 0.07 0.13 0.13 99 1005.1
20260506213851 55 205 1.7 7.0 0.07 0.13 0.13 99 1004.9
20260506213348 55 202 0.0 8.7 0.09 0.12 0.12 99 1005.1
20260506212846 55 228 4.3 11.3 0.07 0.11 0.11 99 1005.0
20260506212341 55 216 3.5 13.9 0.07 0.11 0.11 99 1005.2
20260506211836 55 249 2.6 7.0 0.07 0.10 0.10 99 1005.2
20260506211332 55 142 13.9 17.4 0.05 0.09 0.09 99 1005.8
20260506210830 55 189 7.0 11.3 0.02 0.08 0.08 99 1005.5
20260506210327 55 256 5.2 5.2 0.05 0.08 0.08 99 1005.4
20260506205824 55 237 4.3 9.6 0.07 0.07 0.07 99 1005.3
20260506205320 55 289 3.5 11.3 0.09 0.07 0.07 99 1005.2
20260506204817 55 239 2.6 10.4 0.09 0.06 0.06 99 1005.8
20260506204314 55 215 2.6 7.8 0.09 0.06 0.06 98 1005.5
20260506203812 55 260 3.5 13.0 0.09 0.05 0.05 98 1005.4
20260506203309 55 256 0.9 10.4 0.12 0.04 0.04 98 1005.5
20260506202806 55 235 3.5 9.6 0.09 0.03 0.03 98 1005.4
20260506202306 56 166 1.7 6.1 0.07 0.02 0.02 97 1005.4
20260506201759 56 178 4.3 5.2 0.07 0.01 0.01 97 1005.3
20260506201256 56 137 3.5 5.2 0.02 0.00 0.00 96 1005.4
20260506200753 56 209 1.7 8.7 0.00 0.00 0.00 95 1005.8
20260506200249 57 198 2.6 13.9 0.00 0.00 0.00 93 1005.8
20260506195746 57 267 2.6 15.6 0.00 0.00 0.00 90 1005.8
20260506195242 58 234 0.9 8.7 0.00 0.00 0.00 88 1005.7
20260506194740 58 172 4.3 5.2 0.00 0.00 0.00 88 1005.0
20260506194236 58 173 3.5 6.1 0.00 0.00 0.00 88 1005.7
20260506193734 58 24 2.6 11.3 0.00 0.00 0.00 88 1005.5
20260506193231 58 135 1.7 4.3 0.00 0.00 0.00 87 1005.4
20260506192727 58 74 5.2 6.1 0.00 0.00 0.00 87 1005.4
20260506192224 58 143 1.7 7.8 0.00 0.00 0.00 87 1005.2
20260506191720 58 195 1.7 4.3 0.00 0.00 0.00 87 1005.9
20260506191216 58 109 1.7 7.0 0.00 0.00 0.00 87 1005.9
20260506190714 58 204 4.3 10.4 0.00 0.00 0.00 87 1005.7
20260506190211 58 115 2.6 9.6 0.00 0.00 0.00 86 1005.7
20260506185708 59 138 0.9 10.4 0.00 0.00 0.00 85 1005.7
20260506185203 59 266 3.5 12.2 0.00 0.00 0.00 85 1005.8
20260506184656 60 51 3.5 13.9 0.00 0.00 0.00 83 1006.1
20260506184153 60 247 0.9 7.0 0.00 0.00 0.00 85 1006.0
20260506183650 60 65 3.5 5.2 0.00 0.00 0.00 83 1005.8
20260506183145 59 186 1.7 8.7 0.00 0.00 0.00 85 1005.9
20260506182643 58 284 1.7 5.2 0.00 0.00 0.00 88 1006.1
20260506182140 58 127 3.5 7.0 0.00 0.00 0.00 88 1005.9
20260506181638 58 261 2.6 7.8 0.00 0.00 0.00 87 1006.2
20260506181135 57 188 6.1 9.6 0.00 0.00 0.00 88 1006.4
20260506180632 58 248 5.2 14.8 0.00 0.00 0.00 87 1006.2
20260506180128 58 120 0.0 6.1 0.00 0.00 0.00 88 1006.3
20260506175624 57 224 10.4 11.3 0.00 0.00 0.00 87 1006.4
20260506175120 58 213 1.7 13.0 0.00 0.00 0.00 87 1006.5
20260506174620 58 125 8.7 12.2 0.00 0.00 0.00 86 1006.5
20260506174116 59 73 2.6 7.8 0.00 0.00 0.00 86 1006.4
20260506173614 59 124 4.3 8.7 0.00 0.00 0.00 86 1006.7
20260506173110 59 167 2.6 7.0 0.00 0.00 0.00 86 1006.7
20260506172608 59 163 4.3 11.3 0.00 0.00 0.00 86 1006.6
20260506172103 59 320 6.1 9.6 0.00 0.00 0.00 86 1006.8
20260506171601 59 221 3.5 7.0 0.00 0.00 0.00 86 1006.8
20260506171058 59 278 2.6 7.8 0.00 0.00 0.00 86 1006.8
20260506170555 58 222 3.5 9.6 0.00 0.00 0.00 88 1007.0
20260506170047 59 273 4.3 11.3 0.00 0.00 0.00 86 1007.3
20260506165545 59 165 5.2 10.4 0.00 0.00 0.00 87 1007.2
20260506165036 59 243 4.3 13.0 0.00 0.00 0.00 86 1007.4
20260506164533 59 345 2.6 11.3 0.00 0.00 0.00 87 1007.0
20260506164030 59 147 4.3 12.2 0.00 0.00 0.00 87 1007.4
20260506163526 59 219 1.7 8.7 0.00 0.00 0.00 87 1007.3
20260506163022 59 201 5.2 10.4 0.00 0.00 0.00 86 1007.3
20260506162518 59 251 4.3 7.8 0.00 0.00 0.00 88 1007.6
20260506162015 59 231 3.5 11.3 0.00 0.00 0.00 87 1007.7
20260506161513 59 293 8.7 13.9 0.00 0.00 0.00 86 1007.9
20260506161009 59 178 6.1 11.3 0.00 0.00 0.00 87 1007.7
20260506160507 59 233 2.6 10.4 0.00 0.00 0.00 88 1007.8
20260506160004 58 229 3.5 9.6 0.00 0.00 0.00 88 1007.8
20260506155503 59 345 2.6 4.3 0.00 0.00 0.00 88 1007.8
20260506153634 57 132 1.7 13.0 0.00 0.00 0.00 89 1007.7
20260506153131 59 56 3.5 7.8 0.00 0.00 0.00 87 1007.7
20260506152628 59 277 4.3 7.8 0.00 0.00 0.00 87 1007.6
20260506152126 58 225 4.3 7.8 0.00 0.00 0.00 87 1007.4
20260506151624 59 284 2.6 6.1 0.00 0.00 0.00 88 1007.3
20260506151121 59 164 4.3 13.9 0.00 0.00 0.00 87 1007.4
20260506150617 59 302 2.6 8.7 0.00 0.00 0.00 87 1007.3
20260506150114 60 70 0.9 12.2 0.00 0.00 0.00 87 1007.3
20260506145611 59 205 2.6 12.2 0.00 0.00 0.00 86 1007.6
20260506145108 59 113 3.5 10.4 0.00 0.00 0.00 88 1007.8
20260506144605 58 228 1.7 8.7 0.00 0.00 0.00 89 1007.9
20260506144102 57 300 1.7 8.7 0.00 0.00 0.00 90 1008.0
20260506143600 58 281 2.6 8.7 0.00 0.00 0.00 89 1008.1
20260506143058 58 217 4.3 7.0 0.00 0.00 0.00 89 1008.1
20260506142555 58 215 4.3 11.3 0.00 0.00 0.00 89 1008.0
20260506142053 57 98 3.5 13.0 0.00 0.00 0.00 89 1007.9
20260506141551 57 345 2.6 17.4 0.00 0.00 0.00 89 1008.4
20260506141049 58 195 2.6 8.7 0.00 0.00 0.00 88 1008.3
20260506140546 58 275 3.5 3.5 0.00 0.00 0.00 88 1008.2
20260506140044 58 254 0.0 3.5 0.00 0.00 0.00 88 1008.0
20260506135541 58 289 1.7 9.6 0.00 0.00 0.00 88 1008.0
20260506135037 59 264 1.7 4.3 0.00 0.00 0.00 87 1007.8